Weather History for KPPQ - April, 2013

Change the Weather History Date:

Monday, April 29, 2013

  Actual Average (KUIN) Record (KUIN)
Temperature  
Mean Temperature 63 °F 58 °F  
Max Temperature 79 °F 68 °F 91 °F (1910)
Min Temperature 47 °F 48 °F 30 °F (1958)
Degree Days  
Heating Degree Days 2 8  
Month to date heating degree days 362  
Since 1 July heating degree days 5422  
Cooling Degree Days 0 1  
Month to date cooling degree days 16  
Year to date cooling degree days 18  
Growing Degree Days 13 (Base 50)    
Moisture  
Dew Point 54 °F    
Average Humidity 72    
Maximum Humidity 94    
Minimum Humidity 47    
Precipitation  
Precipitation 0.00 in 0.13 in 1.65 in (1963)
Month to date precipitation 3.56  
Year to date precipitation 9.42  
Sea Level Pressure  
Sea Level Pressure 29.84 in    
Wind  
Wind Speed 9 mph (SSE)    
Max Wind Speed 18 mph    
Max Gust Speed 24 mph    
Visibility 9 miles    
Events      
T = Trace of Precipitation, MM = Missing Value Source: NWS Daily Summary

Daily Weather History Graph

Daily Weather History Graph

Search for Another Location

Airport or City:

Trip Planner

Search our weather history database for the weather conditions in past years. The results will help you decide how hot, cold, wet, or windy it might be!

Date:

Astronomy

Apr. 29, 2013 Rise Set
Actual Time 6:06 AM CDT 7:55 PM CDT
Civil Twilight 5:37 AM CDT 8:24 PM CDT
Nautical Twilight 5:01 AM CDT 8:59 PM CDT
Astronomical Twilight 4:24 AM CDT 9:37 PM CDT
Moon No Moon Rise 9:27 AM CDT (4/29)
Length of Visible Light 14h 47m
Length of Day
13h 49m
Waning Gibbous, 80% of the Moon is Illuminated
Apr 29
Waning Gibbous
May 2
Last Quarter
May 9
New
May 17
First Quarter
May 24
Full

Hourly Weather History & Observations

Time (CDT) Temp. Dew Point Humidity Pressure Visibility Wind Dir Wind Speed Gust Speed Precip Events Conditions
12:15 AM 50.5 °F 47.3 °F 89% 29.92 in 10.0 mi SSE 6.9 mph - N/A   Clear
12:35 AM 50.0 °F 47.3 °F 90% 29.92 in 10.0 mi SSE 5.8 mph - N/A   Clear
12:55 AM 49.6 °F 46.8 °F 90% 29.92 in 10.0 mi SSE 6.9 mph - N/A   Clear
1:15 AM 49.6 °F 46.8 °F 90% 29.91 in 10.0 mi SSE 5.8 mph - N/A   Clear
1:35 AM 49.5 °F 46.9 °F 91% 29.91 in 10.0 mi SSE 5.8 mph - N/A   Clear
1:55 AM 49.5 °F 46.8 °F 90% 29.91 in 10.0 mi South 6.9 mph - N/A   Clear
2:15 AM 49.5 °F 46.8 °F 90% 29.91 in 10.0 mi SSE 6.9 mph - N/A   Clear
2:35 AM 49.3 °F 46.8 °F 91% 29.91 in 7.0 mi SSE 6.9 mph - N/A   Clear
2:55 AM 48.6 °F 46.4 °F 92% 29.91 in 7.0 mi SSE 3.5 mph - N/A   Clear
3:15 AM 48.4 °F 46.4 °F 93% 29.91 in 7.0 mi Calm Calm - N/A   Clear
3:35 AM 48.9 °F 46.8 °F 92% 29.91 in 7.0 mi SE 3.5 mph - N/A   Clear
3:55 AM 48.2 °F 46.4 °F 93% 29.90 in 5.0 mi ESE 3.5 mph - N/A   Clear
4:15 AM 48.0 °F 46.4 °F 94% 29.91 in 5.0 mi SE 4.6 mph - N/A   Clear
4:35 AM 48.2 °F 46.6 °F 94% 29.91 in 5.0 mi SE 3.5 mph - N/A   Clear
4:55 AM 47.1 °F 45.5 °F 94% 29.91 in 4.0 mi SE 4.6 mph - N/A   Clear
5:15 AM 47.3 °F 45.5 °F 93% 29.91 in 4.0 mi SSE 4.6 mph - N/A   Clear
5:35 AM 47.5 °F 45.9 °F 94% 29.91 in 5.0 mi SSE 3.5 mph - N/A   Clear
5:55 AM 47.5 °F 45.9 °F 94% 29.90 in 5.0 mi SSE 3.5 mph - N/A   Clear
6:15 AM 47.7 °F 46.0 °F 94% 29.90 in 4.0 mi SSE 3.5 mph - N/A   Clear
6:35 AM 47.7 °F 46.0 °F 94% 29.91 in 3.0 mi SE 3.5 mph - N/A   Clear
6:55 AM 49.1 °F 47.3 °F 93% 29.91 in 3.0 mi SSE 4.6 mph - N/A   Clear
7:15 AM 50.0 °F 48.2 °F 94% 29.92 in 4.0 mi SSE 5.8 mph - N/A   Clear
7:35 AM 51.8 °F 49.5 °F 92% 29.91 in 5.0 mi SE 5.8 mph - N/A   Clear
7:55 AM 53.4 °F 50.2 °F 89% 29.91 in 7.0 mi SSE 6.9 mph - N/A   Clear
8:15 AM 55.0 °F 51.3 °F 87% 29.92 in 7.0 mi South 9.2 mph - N/A   Clear
8:35 AM 56.3 °F 51.8 °F 85% 29.91 in 10.0 mi SSE 9.2 mph - N/A   Clear
8:55 AM 57.7 °F 52.5 °F 83% 29.91 in 10.0 mi SSE 10.4 mph - N/A   Clear
9:15 AM 59.7 °F 53.6 °F 80% 29.91 in 10.0 mi SSE 9.2 mph - N/A   Clear
9:35 AM 61.2 °F 54.0 °F 77% 29.90 in 10.0 mi South 9.2 mph - N/A   Clear
9:55 AM 63.1 °F 55.0 °F 75% 29.90 in 10.0 mi South 8.1 mph - N/A   Clear
10:15 AM 65.3 °F 55.8 °F 71% 29.89 in 10.0 mi South 8.1 mph - N/A   Clear
10:35 AM 66.7 °F 56.3 °F 69% 29.88 in 10.0 mi SSE 11.5 mph - N/A   Clear
10:55 AM 67.8 °F 56.7 °F 67% 29.88 in 10.0 mi South 8.1 mph - N/A   Clear
11:15 AM 69.3 °F 57.4 °F 66% 29.87 in 10.0 mi SSE 10.4 mph - N/A   Clear
11:35 AM 70.0 °F 58.1 °F 66% 29.87 in 10.0 mi South 12.7 mph 16.1 mph N/A   Clear
11:55 AM 71.8 °F 59.5 °F 65% 29.86 in 10.0 mi South 11.5 mph 17.3 mph N/A   Clear
12:15 PM 72.5 °F 59.5 °F 64% 29.85 in 10.0 mi South 10.4 mph - N/A   Clear
12:35 PM 73.4 °F 59.5 °F 62% 29.85 in 10.0 mi South 9.2 mph - N/A   Clear
12:55 PM 74.5 °F 60.1 °F 61% 29.83 in 10.0 mi South 12.7 mph 18.4 mph N/A   Clear
1:15 PM 76.1 °F 59.9 °F 57% 29.83 in 10.0 mi South 11.5 mph 18.4 mph N/A   Clear
1:35 PM 76.8 °F 60.1 °F 56% 29.82 in 10.0 mi South 12.7 mph - N/A   Clear
1:55 PM 77.4 °F 60.3 °F 55% 29.81 in 10.0 mi SSE 15.0 mph - N/A   Clear
2:15 PM 77.9 °F 60.1 °F 54% 29.81 in 10.0 mi SSE 13.8 mph 19.6 mph N/A   Clear
2:35 PM 78.1 °F 59.9 °F 53% 29.80 in 10.0 mi South 15.0 mph 18.4 mph N/A   Clear
2:55 PM 78.6 °F 59.9 °F 52% 29.80 in 10.0 mi SSE 13.8 mph 21.9 mph N/A   Clear
3:15 PM 79.5 °F 59.5 °F 50% 29.78 in 10.0 mi South 15.0 mph 20.7 mph N/A   Clear
3:35 PM 79.7 °F 59.2 °F 49% 29.77 in 10.0 mi South 15.0 mph - N/A   Clear
3:55 PM 79.5 °F 58.6 °F 49% 29.77 in 10.0 mi South 17.3 mph 23.0 mph N/A   Clear
4:15 PM 79.2 °F 58.3 °F 49% 29.76 in 10.0 mi SSE 16.1 mph 20.7 mph N/A   Clear
4:35 PM 79.3 °F 57.6 °F 47% 29.75 in 10.0 mi South 15.0 mph - N/A   Clear
4:55 PM 79.3 °F 58.3 °F 48% 29.75 in 10.0 mi SSE 16.1 mph - N/A   Clear
5:15 PM 79.2 °F 58.6 °F 49% 29.75 in 10.0 mi SSE 17.3 mph - N/A   Clear
5:35 PM 78.8 °F 59.4 °F 51% 29.75 in 10.0 mi SSE 13.8 mph - N/A   Clear
5:55 PM 78.3 °F 59.5 °F 52% 29.74 in 10.0 mi SSE 15.0 mph 20.7 mph N/A   Clear
6:15 PM 77.5 °F 58.3 °F 51% 29.74 in 10.0 mi SSE 13.8 mph 24.2 mph N/A   Clear
6:35 PM 76.6 °F 58.6 °F 54% 29.73 in 10.0 mi SSE 15.0 mph 19.6 mph N/A   Clear
6:55 PM 75.6 °F 59.0 °F 56% 29.73 in 10.0 mi SE 13.8 mph 23.0 mph N/A   Clear
7:15 PM 74.5 °F 59.4 °F 59% 29.73 in 10.0 mi SE 12.7 mph - N/A   Clear
7:35 PM 73.4 °F 59.4 °F 61% 29.73 in 10.0 mi SSE 13.8 mph - N/A   Clear
7:55 PM 72.0 °F 59.0 °F 64% 29.74 in 10.0 mi SSE 12.7 mph - N/A   Clear
8:15 PM 71.1 °F 59.0 °F 66% 29.75 in 10.0 mi SSE 12.7 mph 18.4 mph N/A   Clear
8:35 PM 69.8 °F 59.0 °F 68% 29.75 in 10.0 mi SSE 13.8 mph - N/A   Clear
8:55 PM 69.8 °F 58.8 °F 68% 29.75 in 10.0 mi SSE 13.8 mph - N/A   Clear
9:15 PM 69.3 °F 58.5 °F 68% 29.76 in 10.0 mi SSE 13.8 mph - N/A   Clear
9:35 PM 69.4 °F 58.3 °F 68% 29.76 in 10.0 mi SSE 12.7 mph - N/A   Clear
9:55 PM 69.3 °F 58.1 °F 68% 29.76 in 10.0 mi SSE 15.0 mph - N/A   Clear
10:15 PM 69.8 °F 59.0 °F 68% 29.76 in 10.0 mi SSE 13.8 mph - N/A   Clear
10:35 PM 68.9 °F 58.1 °F 68% 29.76 in 10.0 mi South 13.8 mph - N/A   Clear
10:55 PM 69.3 °F 58.1 °F 68% 29.76 in 10.0 mi South 13.8 mph - N/A   Clear
11:15 PM 69.8 °F 58.1 °F 66% 29.76 in 10.0 mi South 16.1 mph - N/A   Clear
11:35 PM 70.0 °F 58.1 °F 66% 29.76 in 10.0 mi South 18.4 mph 24.2 mph N/A   Clear
11:55 PM 69.8 °F 58.5 °F 67% 29.76 in 10.0 mi South 17.3 mph 21.9 mph N/A   Clear